Вернуться в каталог

NAJM-1

АктивенНаукаSSO
NORAD 47947·PAYLOAD·🇸🇦 Saudi Arabia
Это название спутника еще не подтверждено официальными источниками.

Запущен Mar 22, 2021 с Baikonur Cosmodrome

Loading…

Ближайшие Пролёты (ближайшие 24 часа)

TLE

СвежийSource: Space-Track

Эпоха: Sep 14, 2026, 14:39 UTC

1 47947U 21022R   26257.61044453 -.00000561  00000-0 -31526-4 0  9992
2 47947  97.3421 129.4497 0016187 221.2186 138.7823 15.09049274301490

Отслеживайте NAJM-1 в реальном времени с AllMySat

Download on the App Store